STARLINK-32339, 61640

Orbit data source: Space-Track

STARLINK-32339, 61640 is a payload satellite owned by SpaceX/Seattle (US) in LEO that was launched on Wed, 23 Oct 2024 UTC via an FALCON 9 launch vehicle from the Air Force Eastern Test Range (AFETR). Payload-class satellites include a variety of spacecraft equipped with specific instruments for various scientific and technological missions. These include communications satellites like Starlink; space stations such as the ISS; scientific satellites like the Hubble; Earth observation satellites from companies like Planet Labs, Umbra, and HawkEye 360; GPS; miniature CubeSats for education and research; and military/defense satellites.

Loading next visibility...
Identifier
61640, 2024-191V
Orbit
LEO
Country
Flag of USUS
Related business
Manufacturer
SpaceX/Seattle
Mission
Operational Commercial Communications
Bus & Motor
STARLINK V2M, Unknown motor
Mass
730 kg wet, ~700 kg dry
Launch date (UTC)
2024-10-23 (2 years ago)
Launch vehicle
FALCON 9
Launch site
Air Force Eastern Test Range (AFETR)
Object type
Payload
Rocket body
Debris
Shape & HBR
Box + 2 Pan, 17.7 m
Radar Cross Section
33.884 m², Large (>1 m²)

Expand to show TLE details & history
Last TLE update: 6 hours ago

TLE from 6 hours ago
0 STARLINK-32339
1 61640U 24191V   26256.17247282  .00000258  00000-0  18903-4 0  9998
2 61640  43.0095 175.3345 0002028 255.2929 104.7698 15.27576866106201
Epoch: 2026-09-13T04:08Z
TLE epoch observation values (Epoch: 2026-09-13T04:08:21.651Z)
Latitude
-0.00003°
Longitude
121.07332°
Altitude
483.19 km
Speed
7.625 km/s
True Right ascension
11h 41m 20s
True Declination
0° 00' 00"
Sunlit
Object was in daylight at epoch
Visualization orbit readout
Latitude
Unknown
Longitude
Unknown
Altitude
Unknown
Speed
Unknown
Apparent Right ascension
Unknown
Apparent Declination
Unknown
Sunlit
N/A
Visualization observer readout
Local Sidereal Time
03:05:49
Azimuth
Unknown
Elevation
Unknown
Doppler factor
Unknown
Orbital elements
Apogee altitude
486.394 km
Perigee altitude
483.61 km
Semi-major axis
6,863.139 km
Eccentricity
0.0002
Inclination
43.0095°
RAAN
175.3345°
Arg. of periapsis
255.2929°
True anomaly
104.79227°
Mean anomaly
104.7698°
Eccentric anomaly
104.78104°
Mean motion
3.81732 °/min
Orbital period
94.31 mins
BSTAR
0.000018903
Loading maneuver chart data...
Computing Atmospheric mass density...
Loading historical data...
Loading historical data...
Loading historical data...
Loading historical data...
Loading historical data...
Loading historical data...
Loading historical data...

Documentation

Showing up to 5 results
|